This is the latest recevied weather packets stored in our database for station/object K7MT-WX. If no packets are shown the sender has not sent any weather packets the latest 10 day(s).
| Time | Temp. | Humidity | Pressure | Rain* | Wind** | Luminosity | Snow |
|---|---|---|---|---|---|---|---|
| 1788121979 | 19.44° C | 33% | 1014.5 hPa | 0 mm | - | - | - |
| 1788121079 | 20° C | 32% | 1014.5 hPa | 0 mm | - | - | - |
| 1788120179 | 20° C | 33% | 1014.5 hPa | 0 mm | - | - | - |
| 1788119279 | 19.44° C | 34% | 1014.6 hPa | 0 mm | - | - | - |
| 1788118379 | 18.89° C | 35% | 1014.9 hPa | 0 mm | - | - | - |
| 1788117479 | 18.33° C | 36% | 1014.9 hPa | 0 mm | - | - | - |
| 1788116579 | 18.33° C | 40% | 1015 hPa | 0 mm | - | - | - |
| 1788115679 | 17.78° C | 39% | 1014.9 hPa | 0 mm | - | - | - |
| 1788114779 | 18.33° C | 37% | 1015 hPa | 0 mm | - | - | - |
| 1788113879 | 17.78° C | 36% | 1015.2 hPa | 0 mm | - | - | - |
| 1788112979 | 17.22° C | 37% | 1015.2 hPa | 0 mm | - | - | - |
| 1788112079 | 17.22° C | 38% | 1015.4 hPa | 0 mm | - | - | - |
| 1788111179 | 16.11° C | 39% | 1015.4 hPa | 0 mm | - | - | - |
| 1788110279 | 16.67° C | 39% | 1015.5 hPa | 0 mm | - | - | - |
| 1788109392 | 16.67° C | 41% | 1015.4 hPa | 0 mm | - | - | - |
| 1788108479 | 16.11° C | 40% | 1015.4 hPa | 0 mm | - | - | - |
| 1788107579 | 16.11° C | 43% | 1015.5 hPa | 0 mm | - | - | - |
| 1788106679 | 15.56° C | 42% | 1015.5 hPa | 0 mm | - | - | - |
| 1788105779 | 15° C | 46% | 1015.5 hPa | 0 mm | - | - | - |
| 1788104879 | 15° C | 46% | 1015.5 hPa | 0 mm | - | - | - |
| 1788103979 | 15° C | 42% | 1015.5 hPa | 0 mm | - | - | - |
| 1788103079 | 14.44° C | 43% | 1015.5 hPa | 0 mm | - | - | - |
| 1788102180 | 13.89° C | 46% | 1015.5 hPa | 0 mm | - | - | - |
| 1788101279 | 13.33° C | 49% | 1015.6 hPa | 0 mm | - | - | - |
| 1788100379 | 12.22° C | 53% | 1015.6 hPa | 0 mm | - | - | - |
* Rain latest hour (hover to see other rain measurements)
** Current wind speed in m/s (hover to see current wind gust speed)